{"data":{"norad_id":66374,"epoch":"2026-09-20T22:10:34.077792Z","epoch_age_seconds":56778,"freshness":"FRESH","line1":"1 66374U 25254AC  26263.92400553  .00020212  00000+0  60771-3 0  9991","line2":"2 66374  53.1605  39.4112 0000976  75.4398 284.6713 15.34400055 48950","mean_motion":15.34400055,"eccentricity":9.76e-5,"inclination_deg":53.1605,"raan_deg":39.4112,"arg_perigee_deg":75.4398,"mean_anomaly_deg":284.6713,"bstar":0.00060771,"rev_number":4895,"period_min":93.847754717397,"perigee_km":462.03541074403,"apogee_km":463.37074272701,"semimajor_km":6840.8400767355,"source":"CELESTRAK","updated_at":"2026-09-21T09:00:35.884506Z"}}